GORIZONT 29 [-]

Last updated on Sept. 19, 2020, 5:46 a.m. UTC

1 22907U 93072A   20262.15593681 -.00000194  00000-0  00000+0 0  9995
2 22907  14.8163   3.8941 0012285 327.1574  63.4823  1.00162168 98195
UTC
Height (km)
Latitude
Longitude
Inclination
Orbital Period
UTC large
Height (km)
Speed (km/s)
/
Latitude / Longitude
Inclination (degrees)
Orbital Period (minutes)
Azimuth
Elevation
Range (km)
Doppler Factor
iOS Compass Heading
iOS Angle

Next 30 passes for location: Hong Kong

Rise time Rise Azimuth (degrees) Set time Set Azimuth (degrees) Duration Max altitude (degrees)

No matching passes for this satellites